Theta_e
338 344 349 348 345 345 346 346 346 345 343 342 342 342 341 341 340 343 341 339 338 341 340 342 342 342 344 343 342 342 341 340 339 339 338 337 336 335 334 334 334 328 333
342 346 346 348 346 345 344 345 346 345 343 342 341 341 340 339 338 340 338 339 336 337 340 339 340 342 341 340 339 338 340 339 337 336 336 336 335 334 333 333 334 329 332
343 346 346 347 347 344 343 343 343 344 343 342 340 339 339 338 337 336 337 338 337 333 337 338 338 338 339 338 336 336 336 335 336 334 333 326 327 333 332 331 331 331 330
344 345 345 345 347 344 343 344 343 342 343 341 339 338 337 335 334 334 333 337 337 334 335 338 337 336 337 337 336 335 335 336 334 333 324 324 326 332 331 331 330 329 329
342 344 344 344 347 345 344 344 343 342 343 342 339 338 338 335 333 333 332 333 333 331 333 336 336 335 335 336 335 334 334 335 333 327 321 321 323 328 329 329 329 329 328
341 343 342 345 348 345 345 344 343 342 341 342 340 338 339 337 336 336 333 333 335 335 337 336 335 334 335 337 337 333 334 334 328 322 322 325 322 328 327 327 328 327 330
341 341 342 344 347 346 346 344 343 342 342 341 341 340 339 337 336 334 334 332 331 330 333 334 333 332 333 336 336 334 332 332 322 319 319 320 322 328 327 327 326 326 325
340 342 342 338 341 343 345 345 345 344 343 342 342 342 339 338 338 335 333 332 330 328 330 331 332 331 330 331 333 332 331 329 323 321 319 320 329 329 327 325 325 324 324
341 341 340 340 339 336 339 340 341 342 343 342 339 342 340 339 339 338 336 336 332 331 330 330 331 330 329 329 329 329 329 328 322 321 322 321 332 330 327 326 325 325 324
337 338 338 338 339 338 337 333 335 337 338 338 338 335 335 334 334 334 332 335 336 335 334 334 333 331 330 330 330 327 326 326 322 320 320 321 331 331 329 327 326 325 325
333 335 336 336 337 337 336 335 330 331 332 332 331 329 329 332 331 329 329 330 336 336 336 336 335 333 331 328 328 326 325 319 319 319 318 325 331 332 331 329 327 326 326
328 330 334 335 335 336 338 336 334 336 333 331 331 329 328 330 330 329 324 326 330 331 334 336 335 332 327 320 318 320 318 318 318 317 317 326 331 333 332 330 329 328 327
328 330 331 333 334 334 334 334 333 336 334 333 331 329 327 327 326 325 324 324 323 322 325 329 328 327 323 320 319 316 314 316 316 317 319 325 331 334 333 332 330 330 329
326 329 331 332 331 331 332 331 332 333 334 334 334 333 330 327 323 323 322 322 322 322 321 322 322 323 323 322 320 318 315 315 316 316 316 319 329 333 333 332 331 331 331
323 325 329 330 330 331 331 331 330 329 330 332 332 332 333 330 327 324 323 322 322 322 321 320 320 321 321 321 321 319 317 315 315 315 315 316 322 329 332 332 332 332 332
312 310 312 323 330 331 330 330 331 331 331 330 329 330 331 331 330 328 326 323 321 322 322 321 321 320 320 320 319 319 318 317 317 316 315 315 320 325 329 331 331 331 332
308 308 309 310 310 313 324 330 330 330 331 330 330 331 330 330 329 330 328 326 325 325 323 321 320 320 319 319 318 319 319 318 317 316 316 315 316 319 323 328 330 331 331
307 306 307 310 309 308 309 313 327 330 329 329 329 330 331 330 331 331 329 328 328 327 326 324 322 321 321 320 319 319 319 319 319 318 317 317 316 317 319 324 328 330 330
305 306 307 308 308 310 309 309 312 320 326 329 328 328 329 330 332 331 330 330 329 328 326 325 324 323 322 321 321 321 321 321 321 322 320 319 320 319 319 319 321 323 328
304 304 305 307 307 309 311 308 309 312 316 320 324 327 328 330 332 331 331 331 330 328 328 326 325 324 323 323 322 322 321 321 322 321 320 320 321 320 319 318 316 317 319
301 302 303 304 305 307 308 308 307 310 314 318 320 324 327 327 329 328 324 326 329 328 328 328 326 324 322 323 321 321 322 322 320 321 320 319 320 320 317 318 317 316 317
299 300 301 302 302 303 305 308 310 307 313 318 321 318 323 325 325 326 325 326 326 326 325 325 324 322 322 323 319 317 313 315 316 320 322 320 320 317 317 316 316 316 317
296 297 298 298 298 299 301 309 313 311 314 312 312 314 310 309 312 312 312 316 319 324 323 323 323 322 320 321 322 317 311 309 311 317 317 319 318 317 318 316 317 317 317
294 295 296 296 296 298 299 303 307 307 305 304 306 307 302 300 301 303 305 306 308 311 311 312 314 321 322 319 319 320 320 317 311 310 317 316 317 316 317 316 316 317 317
294 292 293 294 294 295 296 297 298 297 298 297 298 298 298 297 296 297 298 300 302 303 302 305 309 312 312 319 319 317 316 317 317 312 309 313 317 316 317 318 318 316 316
292 291 291 292 292 293 294 293 293 293 294 294 293 294 294 294 293 293 295 295 296 297 298 300 302 302 305 308 307 305 307 307 308 309 309 310 310 312 314 315 314 315 317
Wind_Speed
3 5 11 12 13 12 12 12 12 12 13 14 14 14 14 14 13 11 16 14 13 17 15 15 15 15 16 17 16 16 17 17 16 16 15 14 14 14 14 12 9 6 13
8 6 10 10 11 11 11 11 9 10 12 12 13 13 12 12 13 16 13 12 10 11 13 14 13 13 14 14 13 13 14 14 13 13 13 14 13 12 13 10 10 9 11
9 7 8 10 10 10 10 10 9 8 8 12 11 11 11 11 11 12 11 9 13 9 12 12 12 10 10 9 9 10 11 10 12 12 11 5 5 10 10 9 9 9 9
10 7 7 11 10 10 9 8 8 8 8 11 10 10 9 10 9 10 9 10 10 10 9 11 11 10 8 6 6 6 8 10 11 9 5 4 5 9 7 9 6 8 8
9 8 7 10 10 10 9 8 7 8 8 10 10 10 10 9 9 8 7 6 7 7 7 10 10 8 8 5 3 4 7 11 11 7 6 5 4 6 6 6 5 7 4
9 8 10 11 11 10 9 9 8 8 8 9 9 10 9 11 11 10 7 5 6 7 8 9 8 7 7 5 6 3 4 8 6 5 5 6 5 7 6 5 6 5 1
8 8 8 11 11 10 9 9 7 6 6 6 7 9 10 10 11 9 9 5 6 5 4 6 7 5 6 8 7 3 3 5 5 4 4 5 5 7 6 6 5 4 4
11 9 7 10 10 10 9 8 7 6 5 5 5 7 8 9 10 10 9 8 5 4 1 5 5 2 3 4 4 3 4 4 4 1 2 3 6 7 6 5 4 4 4
10 9 7 7 7 8 8 7 7 7 7 6 5 6 7 8 8 9 8 9 9 8 6 5 5 3 2 1 1 2 5 6 2 1 3 3 8 6 5 5 5 5 5
6 8 7 6 6 6 6 9 9 8 6 6 6 6 7 8 8 8 8 9 10 9 8 7 6 6 5 5 4 5 6 7 4 0 1 4 9 7 7 6 6 6 7
3 6 6 6 7 7 6 6 7 7 7 7 6 6 5 4 5 6 6 8 10 10 9 9 8 7 6 6 7 7 7 3 5 2 2 7 11 9 8 8 8 8 8
6 6 7 6 7 6 5 6 6 6 4 4 5 5 4 4 4 5 6 9 10 9 10 9 9 9 6 3 3 5 3 5 4 4 3 7 13 12 9 9 9 9 10
7 5 7 8 7 7 5 4 3 3 3 3 6 5 5 4 4 3 3 3 4 6 3 5 4 3 4 4 4 4 5 4 3 3 4 8 13 15 11 11 11 11 12
6 8 8 8 7 7 4 4 4 4 4 4 5 7 5 4 4 4 3 4 4 3 5 4 3 4 5 5 5 5 5 4 3 3 4 7 12 16 14 14 13 14 14
7 7 8 6 6 5 6 4 4 5 4 5 5 6 5 4 4 4 4 3 4 3 4 4 4 4 5 5 5 6 6 6 6 4 3 8 10 15 16 17 16 15 17
6 6 4 6 6 5 6 6 5 4 5 4 4 5 7 5 5 4 4 4 4 4 4 4 5 5 5 4 6 6 7 6 6 6 4 5 11 14 17 19 20 19 19
4 5 4 5 4 2 5 6 5 5 4 4 5 6 6 5 5 6 4 4 5 4 5 4 4 3 4 4 6 5 5 6 6 7 6 5 5 12 15 19 21 21 21
7 5 3 4 5 4 2 4 4 4 4 4 4 4 7 6 7 5 4 4 5 4 5 4 4 4 4 4 4 5 5 6 8 8 6 7 7 7 11 18 19 21 23
7 5 4 5 5 4 4 3 4 5 4 4 4 4 6 6 5 4 4 4 4 3 4 4 4 5 5 5 6 6 6 6 8 7 8 9 10 9 7 10 16 18 20
5 6 5 4 5 5 3 3 2 2 3 3 4 4 6 5 6 3 3 4 4 3 3 3 5 3 5 5 5 7 5 6 7 7 9 8 9 9 9 8 5 8 17
5 6 5 5 5 4 3 2 2 2 2 2 3 4 4 3 3 3 1 3 3 3 4 3 2 3 3 4 2 4 7 7 8 8 6 6 8 8 7 7 5 5 6
5 5 5 5 6 4 2 2 2 0 3 3 4 8 7 7 6 4 6 4 4 3 4 3 3 2 3 3 3 1 3 3 4 7 6 5 9 4 5 6 6 8 7
5 5 5 4 6 5 5 2 1 3 3 4 4 5 9 9 9 9 8 6 6 4 3 3 3 4 3 3 5 3 2 4 2 3 4 4 4 3 4 5 6 7 7
5 5 5 4 6 5 6 4 5 3 3 3 3 5 7 9 11 8 8 7 7 5 6 5 6 4 3 4 2 4 5 3 3 2 2 3 3 4 6 4 5 5 6
7 6 5 5 7 6 6 5 4 6 4 3 3 6 6 7 8 8 8 7 7 5 5 6 6 5 5 3 2 2 2 3 3 3 4 3 3 4 4 4 4 4 5
6 6 6 6 6 5 5 6 6 7 5 4 4 4 4 4 4 7 6 5 5 5 5 4 5 6 6 5 5 6 5 3 4 3 3 3 4 4 3 4 4 6 7
Wind_Direction
169 153 135 134 128 123 115 115 124 125 118 110 103 102 98 94 85 90 65 63 61 58 63 65 58 64 72 73 69 70 74 74 72 76 76 68 66 71 71 73 70 58 77
138 143 138 132 126 120 116 112 115 123 121 115 114 114 107 102 95 101 101 94 75 68 76 76 70 65 69 75 69 67 74 84 77 77 73 72 69 68 73 72 70 68 68
135 140 139 132 129 123 118 114 114 115 123 117 115 116 112 107 104 108 105 100 113 88 81 91 86 80 73 75 65 62 65 53 106 100 84 76 75 74 80 68 79 81 83
139 143 138 137 138 132 129 119 112 122 128 125 119 127 125 113 114 111 107 103 111 112 105 96 91 80 75 76 70 54 54 54 98 102 83 75 73 76 80 77 83 81 71
144 143 142 146 143 144 142 137 126 120 132 133 127 132 133 127 122 111 100 89 118 118 112 105 92 76 60 54 106 57 50 46 116 124 113 99 77 72 88 77 80 96 81
147 149 156 154 153 155 153 153 149 143 141 149 147 147 147 150 144 138 140 113 102 142 106 98 82 63 50 357 150 88 61 71 82 134 129 125 120 104 111 110 115 94 146
141 144 155 158 160 164 165 166 166 161 164 176 169 159 156 160 159 152 147 138 123 135 122 106 91 63 55 47 78 80 36 50 83 153 159 144 147 130 132 142 138 146 145
142 151 156 165 168 170 173 176 179 180 175 171 170 179 173 174 175 171 168 163 167 179 172 116 99 68 40 48 49 21 353 8 60 94 191 169 170 149 146 159 174 182 191
149 150 159 169 176 179 182 185 193 195 196 193 191 192 193 184 187 184 184 181 185 198 200 175 162 188 235 222 320 317 317 315 19 49 197 225 189 170 165 179 199 204 210
161 157 170 173 175 181 191 198 196 197 202 208 211 210 203 195 200 201 203 209 206 205 208 194 195 207 228 245 260 279 293 309 303 150 254 213 234 197 189 194 209 225 227
187 167 169 177 186 192 196 200 204 206 208 219 224 222 213 214 216 220 221 221 227 220 217 211 206 213 230 249 261 272 284 287 291 282 247 234 228 226 212 209 213 226 234
189 195 185 189 197 192 199 194 197 198 200 211 215 215 213 214 222 220 229 232 234 232 229 225 216 219 226 237 272 290 266 264 275 282 271 256 226 237 233 228 225 231 237
195 186 194 195 200 194 199 188 188 183 188 208 212 215 215 212 220 229 243 247 231 241 242 242 245 231 229 232 254 259 264 268 261 276 284 268 232 247 248 250 244 242 245
199 210 201 199 195 204 191 191 200 183 188 195 208 206 197 206 223 230 227 235 220 214 224 230 229 236 239 240 243 257 249 254 254 258 259 262 241 246 254 258 262 259 247
198 212 218 202 209 212 203 204 206 213 194 204 201 203 194 202 207 210 219 216 220 211 217 230 230 231 234 239 241 239 247 243 245 246 247 248 238 248 257 264 270 264 264
163 153 162 196 223 220 215 221 217 207 210 211 220 216 205 197 199 197 212 216 216 211 219 221 218 222 234 227 245 240 246 249 246 249 242 243 237 241 250 259 267 269 267
166 143 147 149 131 194 240 237 226 223 215 215 218 223 225 217 212 187 204 213 217 214 223 227 237 232 240 235 243 246 242 245 246 250 247 246 247 241 242 253 259 263 265
138 139 81 48 42 37 334 266 249 234 221 224 223 217 218 217 212 207 198 214 213 208 214 210 217 231 228 229 239 244 237 236 240 240 234 236 237 242 238 240 247 253 255
136 128 85 58 42 8 326 304 263 255 240 235 225 216 223 219 215 199 206 216 210 214 208 212 217 217 233 232 237 247 248 250 250 250 242 241 243 246 247 242 237 241 248
102 98 91 71 30 8 335 308 297 269 256 250 240 221 220 225 220 205 253 232 215 221 228 216 235 215 238 243 233 245 238 241 251 245 243 242 246 243 249 247 230 238 241
78 84 65 63 25 33 9 352 3 326 324 24 339 276 260 246 136 174 197 275 266 242 230 226 216 240 239 229 264 247 252 244 242 249 249 250 252 245 243 246 236 235 246
117 90 67 54 42 22 1 279 225 249 50 59 36 38 30 56 38 33 24 344 324 297 282 261 234 246 238 197 217 267 279 296 257 252 250 241 246 242 248 238 237 245 244
107 107 90 62 52 24 347 322 86 85 51 23 12 43 39 44 53 51 37 27 16 360 328 311 279 235 257 258 215 210 251 228 338 279 255 252 278 277 274 257 245 244 246
141 120 102 77 65 39 6 30 59 88 108 48 37 56 52 36 43 40 42 29 27 19 19 3 2 321 231 255 279 230 258 282 264 281 329 316 305 278 263 269 266 258 252
144 137 121 95 70 50 45 54 77 87 87 87 63 67 54 47 41 34 36 28 34 25 8 11 6 8 5 320 275 286 254 238 228 268 287 266 320 274 280 287 282 273 273
133 133 127 105 83 71 70 66 86 101 107 92 72 71 54 53 38 33 33 30 26 20 11 8 13 30 14 36 40 32 33 12 19 333 313 330 274 303 311 322 335 340 1